| time (UTC) | temp F | wind direction | speed MPH | gust MPH | rain 1hr in | rain 24hr in | rain mn in | humidity % | barometer mb |
| 20260905091704 | 64 | 250 | 2.0 | 11.0 | 0.00 | 0.00 | 0.00 | 69 | 1021.0 |
| 20260905090709 | 64 | 276 | 4.0 | 9.0 | 0.00 | 0.00 | 0.00 | 69 | 1020.9 |
| 20260905090204 | 64 | 230 | 2.0 | 9.0 | 0.00 | 0.00 | 0.00 | 70 | 1020.8 |
| 20260905085705 | 63 | 240 | 4.0 | 9.0 | 0.00 | 0.00 | 0.00 | 71 | 1020.7 |
| 20260905084704 | 63 | 259 | 2.0 | 9.0 | 0.00 | 0.00 | 0.00 | 72 | 1020.8 |
| 20260905084205 | 63 | 238 | 2.0 | 9.0 | 0.00 | 0.00 | 0.00 | 73 | 1020.9 |
| 20260905083704 | 62 | 241 | 4.0 | 11.0 | 0.00 | 0.00 | 0.00 | 73 | 1020.8 |
| 20260905083204 | 62 | 245 | 2.0 | 11.0 | 0.00 | 0.00 | 0.00 | 74 | 1020.8 |
| 20260905082704 | 61 | 248 | 2.0 | 11.0 | 0.00 | 0.00 | 0.00 | 75 | 1020.7 |
| 20260905082204 | 61 | 230 | 4.0 | 9.0 | 0.00 | 0.02 | 0.00 | 75 | 1020.7 |
| 20260905081704 | 61 | 154 | 2.0 | 9.0 | 0.00 | 0.02 | 0.00 | 76 | 1020.6 |
| 20260905080204 | 60 | 238 | 4.0 | 9.0 | 0.00 | 0.02 | 0.00 | 77 | 1020.6 |
| 20260905075705 | 60 | 227 | 3.0 | 9.0 | 0.00 | 0.02 | 0.00 | 77 | 1020.4 |
| 20260905075204 | 59 | 252 | 3.0 | 9.0 | 0.00 | 0.02 | 0.00 | 78 | 1020.4 |
| 20260905073704 | 58 | 234 | 3.0 | 11.0 | 0.00 | 0.02 | 0.00 | 79 | 1020.3 |
| 20260905073204 | 58 | 230 | 1.0 | 11.0 | 0.00 | 0.02 | 0.00 | 79 | 1020.4 |
| 20260905072704 | 58 | 238 | 2.0 | 9.0 | 0.00 | 0.02 | 0.00 | 78 | 1020.2 |
| 20260905072204 | 57 | 243 | 1.0 | 11.0 | 0.00 | 0.02 | 0.00 | 78 | 1020.2 |
| 20260905071705 | 57 | 227 | 4.0 | 11.0 | 0.00 | 0.02 | 0.00 | 78 | 1020.1 |
| 20260905070704 | 56 | 245 | 4.0 | 5.0 | 0.00 | 0.02 | 0.00 | 77 | 1020.1 |
| 20260905070204 | 56 | 169 | 2.0 | 10.0 | 0.00 | 0.02 | 0.00 | 77 | 1020.0 |
| 20260905065204 | 56 | 226 | 1.0 | 10.0 | 0.00 | 0.02 | 0.00 | 76 | 1019.9 |
| 20260905064704 | 56 | 257 | 3.0 | 4.0 | 0.00 | 0.02 | 0.00 | 75 | 1019.9 |
| 20260905064241 | 56 | 224 | 1.0 | 4.0 | 0.00 | 0.02 | 0.00 | 75 | 1019.8 |
| 20260905063705 | 55 | 226 | 1.0 | 5.0 | 0.00 | 0.02 | 0.00 | 75 | 1019.7 |
| 20260905062705 | 55 | 219 | 2.0 | 5.0 | 0.00 | 0.02 | 0.00 | 75 | 1019.6 |
| 20260905062205 | 55 | 196 | 1.0 | 7.0 | 0.00 | 0.02 | 0.00 | 75 | 1019.5 |
| 20260905061204 | 55 | 234 | 1.0 | 7.0 | 0.00 | 0.02 | 0.00 | 75 | 1019.4 |
| 20260905060205 | 55 | 237 | 1.0 | 7.0 | 0.00 | 0.02 | 0.00 | 75 | 1019.3 |
| 20260905055704 | 55 | 192 | 1.0 | 7.0 | 0.00 | 0.02 | 0.00 | 75 | 1019.3 |
| 20260905055234 | 55 | 178 | 1.0 | 7.0 | 0.00 | 0.02 | 0.00 | 75 | 1019.2 |
| 20260905054704 | 55 | 243 | 2.0 | 5.0 | 0.00 | 0.02 | 0.00 | 75 | 1019.1 |
| 20260905054204 | 55 | 244 | 1.0 | 5.0 | 0.00 | 0.02 | 0.00 | 75 | 1019.0 |
| 20260905053704 | 55 | 241 | 0.0 | 4.0 | 0.00 | 0.02 | 0.00 | 76 | 1019.0 |
| 20260905053204 | 55 | 237 | 0.0 | 4.0 | 0.00 | 0.02 | 0.00 | 76 | 1019.0 |
| 20260905052705 | 55 | 237 | 1.0 | 4.0 | 0.00 | 0.02 | 0.00 | 76 | 1019.0 |
| 20260905052205 | 55 | 227 | 0.0 | 3.0 | 0.00 | 0.02 | 0.00 | 76 | 1018.9 |
| 20260905051704 | 55 | 227 | 1.0 | 4.0 | 0.00 | 0.02 | 0.00 | 76 | 1018.8 |
| 20260905051204 | 55 | 224 | 0.0 | 4.0 | 0.00 | 0.02 | 0.00 | 76 | 1018.8 |
| 20260905050704 | 55 | 226 | 1.0 | 4.0 | 0.00 | 0.02 | 0.00 | 76 | 1018.8 |
| 20260905050204 | 55 | 224 | 1.0 | 4.0 | 0.00 | 0.02 | 0.00 | 76 | 1018.6 |
| 20260905045703 | 55 | 220 | 1.0 | 4.0 | 0.00 | 0.02 | 0.00 | 76 | 1018.7 |
| 20260905044705 | 55 | 226 | 1.0 | 4.0 | 0.00 | 0.02 | 0.00 | 77 | 1018.5 |
| 20260905044204 | 55 | 195 | 1.0 | 4.0 | 0.00 | 0.02 | 0.00 | 77 | 1018.6 |
| 20260905043210 | 56 | 212 | 1.0 | 3.0 | 0.00 | 0.02 | 0.00 | 77 | 1018.6 |
| 20260905041704 | 56 | 230 | 1.0 | 4.0 | 0.00 | 0.02 | 0.00 | 77 | 1018.4 |
| 20260905041205 | 56 | 230 | 1.0 | 4.0 | 0.00 | 0.02 | 0.00 | 77 | 1018.5 |
| 20260905035705 | 56 | 231 | 0.0 | 7.0 | 0.00 | 0.02 | 0.00 | 77 | 1018.2 |
| 20260905035204 | 56 | 227 | 2.0 | 7.0 | 0.00 | 0.02 | 0.00 | 77 | 1018.1 |
| 20260905033704 | 56 | 235 | 1.0 | 9.0 | 0.00 | 0.02 | 0.00 | 77 | 1018.1 |
| 20260905032704 | 56 | 186 | 2.0 | 5.0 | 0.00 | 0.02 | 0.00 | 77 | 1017.9 |
| 20260905032204 | 56 | 243 | 2.0 | 5.0 | 0.00 | 0.02 | 0.00 | 77 | 1017.9 |
| 20260905031204 | 56 | 241 | 2.0 | 6.0 | 0.00 | 0.02 | 0.00 | 78 | 1017.9 |
| 20260905030704 | 56 | 233 | 2.0 | 6.0 | 0.00 | 0.02 | 0.00 | 78 | 1017.9 |
| 20260905025205 | 56 | 255 | 1.0 | 6.0 | 0.00 | 0.02 | 0.00 | 78 | 1017.7 |
| 20260905024704 | 56 | 227 | 1.0 | 6.0 | 0.00 | 0.02 | 0.00 | 78 | 1017.7 |
| 20260905023704 | 57 | 237 | 1.0 | 5.0 | 0.00 | 0.02 | 0.00 | 78 | 1017.6 |
| 20260905023204 | 57 | 235 | 1.0 | 5.0 | 0.00 | 0.02 | 0.00 | 78 | 1017.5 |
| 20260905022704 | 57 | 235 | 1.0 | 5.0 | 0.00 | 0.02 | 0.00 | 78 | 1017.6 |
| 20260905021704 | 57 | 185 | 2.0 | 5.0 | 0.00 | 0.02 | 0.00 | 78 | 1017.5 |
| 20260905021205 | 57 | 250 | 1.0 | 5.0 | 0.00 | 0.02 | 0.00 | 78 | 1017.4 |
| 20260905020704 | 57 | 250 | 1.0 | 6.0 | 0.00 | 0.02 | 0.00 | 78 | 1017.5 |
| 20260905015714 | 57 | 234 | 1.0 | 6.0 | 0.00 | 0.02 | 0.00 | 78 | 1017.4 |
| 20260905015203 | 57 | 238 | 2.0 | 5.0 | 0.00 | 0.02 | 0.00 | 78 | 1017.3 |
| 20260905014704 | 57 | 238 | 0.0 | 5.0 | 0.00 | 0.02 | 0.00 | 78 | 1017.3 |
| 20260905014204 | 57 | 238 | 2.0 | 5.0 | 0.00 | 0.02 | 0.00 | 78 | 1017.2 |
| 20260905013704 | 57 | 245 | 2.0 | 5.0 | 0.00 | 0.02 | 0.00 | 79 | 1017.2 |
| 20260905012704 | 57 | 244 | 2.0 | 5.0 | 0.00 | 0.02 | 0.00 | 79 | 1017.1 |
| 20260905011704 | 57 | 224 | 2.0 | 5.0 | 0.00 | 0.02 | 0.00 | 79 | 1017.2 |
| 20260905011204 | 57 | 233 | 3.0 | 5.0 | 0.00 | 0.02 | 0.00 | 79 | 1017.1 |
| 20260905010705 | 57 | 234 | 2.0 | 5.0 | 0.00 | 0.02 | 0.00 | 78 | 1017.2 |
| 20260905010205 | 57 | 221 | 1.0 | 5.0 | 0.00 | 0.02 | 0.00 | 78 | 1017.1 |
| 20260905005705 | 57 | 251 | 1.0 | 6.0 | 0.00 | 0.02 | 0.00 | 78 | 1017.1 |
| 20260905005204 | 58 | 247 | 2.0 | 6.0 | 0.00 | 0.02 | 0.00 | 78 | 1017.2 |
| 20260905004705 | 58 | 252 | 1.0 | 5.0 | 0.00 | 0.02 | 0.00 | 78 | 1017.1 |
| 20260905004204 | 58 | 183 | 1.0 | 6.0 | 0.00 | 0.02 | 0.00 | 78 | 1017.0 |
| 20260905003704 | 58 | 196 | 2.0 | 6.0 | 0.00 | 0.02 | 0.00 | 78 | 1017.1 |
| 20260905003204 | 58 | 238 | 1.0 | 4.0 | 0.00 | 0.02 | 0.00 | 78 | 1017.0 |
| 20260905002704 | 58 | 237 | 1.0 | 5.0 | 0.00 | 0.02 | 0.00 | 78 | 1017.0 |
| 20260905001705 | 58 | 235 | 1.0 | 5.0 | 0.00 | 0.02 | 0.00 | 78 | 1017.0 |
| 20260905001204 | 58 | 235 | 2.0 | 4.0 | 0.00 | 0.02 | 0.00 | 78 | 1017.0 |
| 20260905000704 | 58 | 227 | 2.0 | 5.0 | 0.00 | 0.02 | 0.00 | 78 | 1017.0 |
| 20260905000204 | 58 | 220 | 1.0 | 5.0 | 0.00 | 0.02 | 0.00 | 78 | 1016.9 |
| 20260904235704 | 58 | 217 | 1.0 | 4.0 | 0.00 | 0.02 | 0.00 | 78 | 1016.7 |
| 20260904235205 | 58 | 214 | 1.0 | 5.0 | 0.00 | 0.02 | 0.00 | 78 | 1016.9 |
| 20260904234706 | 58 | 199 | 2.0 | 5.0 | 0.00 | 0.02 | 0.00 | 78 | 1016.7 |
| 20260904234203 | 59 | 243 | 1.0 | 5.0 | 0.00 | 0.02 | 0.00 | 78 | 1016.7 |
| 20260904233204 | 59 | 250 | 2.0 | 5.0 | 0.00 | 0.02 | 0.00 | 77 | 1016.6 |
| 20260904232703 | 59 | 248 | 1.0 | 5.0 | 0.00 | 0.02 | 0.00 | 77 | 1016.7 |
| 20260904232204 | 59 | 248 | 1.0 | 5.0 | 0.00 | 0.02 | 0.00 | 77 | 1016.8 |
| 20260904231704 | 59 | 251 | 1.0 | 5.0 | 0.00 | 0.02 | 0.00 | 77 | 1016.6 |
| 20260904230704 | 59 | 238 | 1.0 | 5.0 | 0.00 | 0.02 | 0.00 | 77 | 1016.6 |
| 20260904230204 | 59 | 244 | 2.0 | 4.0 | 0.00 | 0.02 | 0.02 | 77 | 1016.5 |
| 20260904225704 | 59 | 243 | 1.0 | 9.0 | 0.00 | 0.02 | 0.02 | 77 | 1016.4 |
| 20260904225204 | 59 | 243 | 1.0 | 9.0 | 0.00 | 0.02 | 0.02 | 77 | 1016.4 |
| 20260904224704 | 60 | 240 | 1.0 | 9.0 | 0.00 | 0.02 | 0.02 | 77 | 1016.4 |
| 20260904224204 | 60 | 190 | 1.0 | 5.0 | 0.00 | 0.02 | 0.02 | 77 | 1016.4 |
| 20260904223704 | 60 | 189 | 1.0 | 5.0 | 0.00 | 0.02 | 0.02 | 77 | 1016.4 |
| 20260904223204 | 60 | 228 | 2.0 | 4.0 | 0.00 | 0.02 | 0.02 | 76 | 1016.3 |
| 20260904221704 | 60 | 221 | 1.0 | 3.0 | 0.00 | 0.02 | 0.02 | 76 | 1016.4 |
| 20260904221205 | 60 | 224 | 1.0 | 6.0 | 0.00 | 0.02 | 0.02 | 76 | 1016.3 |
| 20260904220704 | 60 | 234 | 1.0 | 6.0 | 0.00 | 0.02 | 0.02 | 76 | 1016.3 |
| 20260904220204 | 60 | 237 | 1.0 | 6.0 | 0.00 | 0.02 | 0.02 | 76 | 1016.2 |
| 20260904215204 | 61 | 186 | 1.0 | 5.0 | 0.00 | 0.02 | 0.02 | 75 | 1016.2 |
| 20260904214704 | 61 | 227 | 1.0 | 4.0 | 0.00 | 0.02 | 0.02 | 75 | 1016.2 |
| 20260904214204 | 61 | 228 | 2.0 | 4.0 | 0.00 | 0.02 | 0.02 | 75 | 1016.2 |
| 20260904213705 | 61 | 248 | 1.0 | 4.0 | 0.00 | 0.02 | 0.02 | 75 | 1016.1 |
| 20260904213207 | 61 | 220 | 0.0 | 6.0 | 0.00 | 0.02 | 0.02 | 74 | 1016.0 |
| 20260904212704 | 62 | 224 | 1.0 | 6.0 | 0.00 | 0.02 | 0.02 | 74 | 1016.0 |
| 20260904212203 | 62 | 244 | 1.0 | 6.0 | 0.00 | 0.02 | 0.02 | 74 | 1015.8 |
| 20260904211704 | 62 | 238 | 2.0 | 5.0 | 0.00 | 0.02 | 0.02 | 73 | 1015.8 |
| 20260904211204 | 62 | 238 | 2.0 | 5.0 | 0.00 | 0.02 | 0.02 | 73 | 1015.8 |
| 20260904210704 | 62 | 238 | 1.0 | 5.0 | 0.00 | 0.02 | 0.02 | 73 | 1015.7 |
| 20260904210204 | 62 | 244 | 2.0 | 3.0 | 0.00 | 0.02 | 0.02 | 72 | 1015.9 |
| 20260904205704 | 62 | 233 | 1.0 | 5.0 | 0.00 | 0.02 | 0.02 | 72 | 1015.9 |
| 20260904205204 | 63 | 233 | 2.0 | 6.0 | 0.00 | 0.02 | 0.02 | 72 | 1015.9 |
| 20260904204704 | 63 | 248 | 1.0 | 6.0 | 0.00 | 0.02 | 0.02 | 71 | 1015.9 |
| 20260904204230 | 63 | 237 | 2.0 | 6.0 | 0.00 | 0.02 | 0.02 | 71 | 1015.9 |
| 20260904203704 | 63 | 231 | 2.0 | 6.0 | 0.00 | 0.02 | 0.02 | 71 | 1015.7 |
| 20260904203204 | 63 | 240 | 2.0 | 9.0 | 0.00 | 0.02 | 0.02 | 70 | 1015.6 |
| 20260904202704 | 63 | 245 | 3.0 | 9.0 | 0.00 | 0.02 | 0.02 | 70 | 1015.6 |
| 20260904202204 | 64 | 241 | 2.0 | 9.0 | 0.00 | 0.02 | 0.02 | 70 | 1015.7 |
| 20260904201704 | 64 | 266 | 2.0 | 12.0 | 0.00 | 0.02 | 0.02 | 70 | 1015.7 |
| 20260904201205 | 64 | 241 | 3.0 | 12.0 | 0.00 | 0.02 | 0.02 | 69 | 1015.7 |
| 20260904200704 | 64 | 238 | 4.0 | 11.0 | 0.00 | 0.02 | 0.02 | 69 | 1015.6 |
| 20260904195705 | 64 | 245 | 4.0 | 13.0 | 0.00 | 0.02 | 0.02 | 68 | 1015.6 |
| 20260904195204 | 64 | 244 | 2.0 | 13.0 | 0.00 | 0.02 | 0.02 | 67 | 1015.5 |
| 20260904194709 | 64 | 238 | 3.0 | 9.0 | 0.00 | 0.02 | 0.02 | 67 | 1015.4 |
| 20260904193704 | 65 | 228 | 4.0 | 9.0 | 0.00 | 0.02 | 0.02 | 66 | 1015.3 |
| 20260904192703 | 65 | 234 | 2.0 | 9.0 | 0.00 | 0.02 | 0.02 | 64 | 1014.9 |
| 20260904192204 | 65 | 159 | 2.0 | 9.0 | 0.00 | 0.02 | 0.02 | 64 | 1014.8 |
| 20260904191704 | 65 | 247 | 4.0 | 10.0 | 0.00 | 0.02 | 0.02 | 63 | 1014.8 |
| 20260904191204 | 65 | 238 | 2.0 | 10.0 | 0.00 | 0.02 | 0.02 | 63 | 1014.8 |
| 20260904190204 | 65 | 210 | 4.0 | 10.0 | 0.00 | 0.02 | 0.02 | 62 | 1014.7 |
| 20260904185704 | 65 | 235 | 3.0 | 9.0 | 0.00 | 0.02 | 0.02 | 62 | 1014.5 |
| 20260904185205 | 65 | 243 | 3.0 | 9.0 | 0.00 | 0.02 | 0.02 | 62 | 1014.4 |
| 20260904184704 | 66 | 245 | 3.0 | 10.0 | 0.00 | 0.02 | 0.02 | 61 | 1014.3 |
| 20260904184204 | 66 | 244 | 4.0 | 10.0 | 0.00 | 0.02 | 0.02 | 61 | 1014.3 |
| 20260904183704 | 66 | 243 | 4.0 | 10.0 | 0.00 | 0.02 | 0.02 | 61 | 1014.2 |
| 20260904182704 | 66 | 252 | 3.0 | 13.0 | 0.00 | 0.02 | 0.02 | 61 | 1014.0 |
| 20260904181209 | 66 | 230 | 6.0 | 11.0 | 0.00 | 0.02 | 0.02 | 61 | 1013.9 |
| 20260904180704 | 66 | 255 | 4.0 | 10.0 | 0.00 | 0.02 | 0.02 | 62 | 1013.9 |
| 20260904180204 | 66 | 247 | 4.0 | 9.0 | 0.00 | 0.02 | 0.02 | 62 | 1013.8 |
| 20260904175704 | 66 | 240 | 3.0 | 9.0 | 0.00 | 0.02 | 0.02 | 62 | 1013.6 |
| 20260904175205 | 67 | 200 | 3.0 | 9.0 | 0.00 | 0.02 | 0.02 | 61 | 1013.7 |
| 20260904174727 | 67 | 173 | 2.0 | 10.0 | 0.00 | 0.02 | 0.02 | 61 | 1013.6 |
| 20260904174205 | 67 | 235 | 3.0 | 15.0 | 0.00 | 0.02 | 0.02 | 61 | 1013.6 |
| 20260904173708 | 67 | 243 | 3.0 | 15.0 | 0.00 | 0.02 | 0.02 | 60 | 1013.5 |
| 20260904173204 | 67 | 240 | 5.0 | 15.0 | 0.00 | 0.02 | 0.02 | 60 | 1013.4 |
| 20260904172704 | 67 | 241 | 5.0 | 11.0 | 0.00 | 0.02 | 0.02 | 60 | 1013.4 |
| 20260904172204 | 67 | 231 | 3.0 | 11.0 | 0.00 | 0.02 | 0.02 | 59 | 1013.3 |
| 20260904171704 | 67 | 237 | 2.0 | 9.0 | 0.00 | 0.02 | 0.02 | 58 | 1013.3 |
| 20260904171214 | 67 | 235 | 2.0 | 11.0 | 0.00 | 0.02 | 0.02 | 58 | 1013.3 |
| 20260904170704 | 67 | 255 | 4.0 | 11.0 | 0.00 | 0.02 | 0.02 | 57 | 1013.3 |
| 20260904170209 | 67 | 262 | 3.0 | 11.0 | 0.00 | 0.02 | 0.02 | 56 | 1013.2 |
| 20260904165204 | 67 | 254 | 4.0 | 13.0 | 0.00 | 0.02 | 0.02 | 55 | 1013.2 |
| 20260904164704 | 67 | 252 | 4.0 | 13.0 | 0.00 | 0.02 | 0.02 | 55 | 1013.2 |
| 20260904164204 | 67 | 265 | 4.0 | 13.0 | 0.00 | 0.02 | 0.02 | 55 | 1013.0 |
| 20260904163703 | 68 | 251 | 5.0 | 15.0 | 0.00 | 0.02 | 0.02 | 55 | 1012.9 |
| 20260904163204 | 68 | 195 | 5.0 | 15.0 | 0.00 | 0.02 | 0.02 | 56 | 1012.8 |
| 20260904162703 | 68 | 164 | 3.0 | 13.0 | 0.00 | 0.02 | 0.02 | 57 | 1012.9 |
| 20260904162205 | 68 | 255 | 6.0 | 14.0 | 0.00 | 0.02 | 0.02 | 58 | 1012.9 |
| 20260904161705 | 68 | 244 | 4.0 | 14.0 | 0.00 | 0.02 | 0.02 | 58 | 1012.7 |
| 20260904161204 | 68 | 224 | 5.0 | 12.0 | 0.00 | 0.02 | 0.02 | 58 | 1012.7 |
| 20260904160704 | 68 | 254 | 4.0 | 12.0 | 0.00 | 0.02 | 0.02 | 57 | 1012.6 |
| 20260904155205 | 69 | 99 | 2.0 | 13.0 | 0.00 | 0.02 | 0.02 | 57 | 1012.3 |
| 20260904154203 | 69 | 182 | 6.0 | 13.0 | 0.00 | 0.02 | 0.02 | 56 | 1012.5 |
| 20260904153704 | 69 | 241 | 4.0 | 14.0 | 0.00 | 0.02 | 0.02 | 57 | 1012.6 |
| 20260904153204 | 69 | 235 | 4.0 | 14.0 | 0.00 | 0.02 | 0.02 | 56 | 1012.6 |
| 20260904151705 | 69 | 268 | 5.0 | 14.0 | 0.00 | 0.02 | 0.02 | 57 | 1012.4 |
| 20260904151204 | 69 | 248 | 6.0 | 13.0 | 0.00 | 0.02 | 0.02 | 57 | 1012.4 |
| 20260904150704 | 69 | 237 | 4.0 | 14.0 | 0.00 | 0.02 | 0.02 | 57 | 1012.4 |
| 20260904150204 | 69 | 224 | 5.0 | 14.0 | 0.00 | 0.02 | 0.02 | 57 | 1012.6 |
| 20260904145704 | 69 | 265 | 3.0 | 12.0 | 0.00 | 0.02 | 0.02 | 57 | 1012.3 |
| 20260904145205 | 69 | 223 | 3.0 | 12.0 | 0.00 | 0.02 | 0.02 | 56 | 1012.2 |
| 20260904144704 | 69 | 149 | 2.0 | 15.0 | 0.00 | 0.02 | 0.02 | 56 | 1012.3 |
| 20260904144204 | 69 | 265 | 5.0 | 15.0 | 0.00 | 0.02 | 0.02 | 56 | 1012.2 |
| 20260904143704 | 69 | 240 | 3.0 | 15.0 | 0.00 | 0.02 | 0.02 | 58 | 1012.1 |
| 20260904143204 | 69 | 241 | 5.0 | 13.0 | 0.00 | 0.02 | 0.02 | 58 | 1011.9 |
| 20260904142704 | 69 | 257 | 6.0 | 13.0 | 0.00 | 0.02 | 0.02 | 59 | 1012.1 |
| 20260904142209 | 68 | 231 | 4.0 | 14.0 | 0.00 | 0.02 | 0.02 | 59 | 1012.0 |
| 20260904141704 | 68 | 240 | 6.0 | 14.0 | 0.00 | 0.02 | 0.02 | 59 | 1012.1 |
| 20260904141204 | 68 | 241 | 5.0 | 14.0 | 0.00 | 0.02 | 0.02 | 58 | 1012.0 |
| 20260904140705 | 69 | 264 | 5.0 | 14.0 | 0.00 | 0.02 | 0.02 | 59 | 1012.2 |
| 20260904140205 | 69 | 238 | 7.0 | 14.0 | 0.00 | 0.02 | 0.02 | 59 | 1012.1 |
| 20260904135705 | 69 | 238 | 4.0 | 14.0 | 0.00 | 0.02 | 0.02 | 60 | 1012.2 |
| 20260904135205 | 69 | 235 | 6.0 | 15.0 | 0.00 | 0.02 | 0.02 | 60 | 1012.2 |
| 20260904134704 | 69 | 230 | 5.0 | 19.0 | 0.00 | 0.02 | 0.02 | 60 | 1012.1 |
| 20260904134204 | 69 | 226 | 6.0 | 19.0 | 0.00 | 0.02 | 0.02 | 60 | 1011.8 |
| 20260904133706 | 69 | 202 | 7.0 | 19.0 | 0.00 | 0.02 | 0.02 | 59 | 1012.0 |
| 20260904132705 | 69 | 244 | 8.0 | 18.0 | 0.00 | 0.02 | 0.02 | 60 | 1011.9 |
| 20260904132206 | 69 | 224 | 4.0 | 18.0 | 0.00 | 0.02 | 0.02 | 60 | 1012.0 |
| 20260904131704 | 70 | 257 | 9.0 | 18.0 | 0.00 | 0.02 | 0.02 | 59 | 1012.1 |
| 20260904130704 | 69 | 266 | 6.0 | 16.0 | 0.00 | 0.02 | 0.02 | 59 | 1011.9 |
| 20260904130205 | 70 | 221 | 8.0 | 14.0 | 0.00 | 0.02 | 0.02 | 60 | 1011.8 |
| 20260904125704 | 70 | 261 | 4.0 | 14.0 | 0.00 | 0.02 | 0.02 | 64 | 1011.6 |
| 20260904124704 | 69 | 233 | 6.0 | 15.0 | 0.00 | 0.02 | 0.02 | 64 | 1011.4 |
| 20260904124204 | 69 | 250 | 5.0 | 15.0 | 0.00 | 0.02 | 0.02 | 64 | 1011.4 |
| 20260904123704 | 69 | 245 | 6.0 | 15.0 | 0.00 | 0.02 | 0.02 | 64 | 1011.3 |
| 20260904123204 | 69 | 244 | 4.0 | 14.0 | 0.00 | 0.02 | 0.02 | 64 | 1011.2 |
| 20260904122704 | 69 | 255 | 5.0 | 16.0 | 0.00 | 0.02 | 0.02 | 64 | 1011.4 |
| 20260904121704 | 69 | 262 | 6.0 | 16.0 | 0.00 | 0.02 | 0.02 | 64 | 1011.2 |
| 20260904121203 | 69 | 235 | 7.0 | 13.0 | 0.00 | 0.02 | 0.02 | 64 | 1011.2 |
| 20260904120704 | 69 | 233 | 4.0 | 13.0 | 0.00 | 0.02 | 0.02 | 66 | 1011.0 |
| 20260904120209 | 69 | 244 | 5.0 | 20.0 | 0.00 | 0.02 | 0.02 | 66 | 1010.8 |
| 20260904115705 | 69 | 188 | 3.0 | 20.0 | 0.00 | 0.02 | 0.02 | 66 | 1010.8 |
| 20260904115204 | 69 | 241 | 4.0 | 20.0 | 0.00 | 0.02 | 0.02 | 66 | 1010.9 |
| 20260904114704 | 69 | 265 | 7.0 | 16.0 | 0.00 | 0.02 | 0.02 | 66 | 1010.9 |
| 20260904114203 | 69 | 255 | 6.0 | 13.0 | 0.00 | 0.02 | 0.02 | 66 | 1010.8 |
| 20260904113704 | 70 | 238 | 4.0 | 13.0 | 0.00 | 0.02 | 0.02 | 68 | 1010.7 |
| 20260904113204 | 70 | 298 | 5.0 | 14.0 | 0.00 | 0.02 | 0.02 | 69 | 1010.5 |
| 20260904112704 | 70 | 244 | 5.0 | 14.0 | 0.00 | 0.02 | 0.02 | 69 | 1010.3 |
| 20260904112204 | 70 | 231 | 7.0 | 15.0 | 0.00 | 0.02 | 0.02 | 68 | 1010.5 |
| 20260904111704 | 70 | 272 | 7.0 | 15.0 | 0.00 | 0.02 | 0.02 | 69 | 1010.4 |
| 20260904111214 | 70 | 259 | 5.0 | 15.0 | 0.00 | 0.02 | 0.02 | 69 | 1010.2 |
| 20260904110704 | 70 | 257 | 5.0 | 17.0 | 0.00 | 0.02 | 0.02 | 70 | 1010.4 |
| 20260904110204 | 70 | 228 | 2.0 | 17.0 | 0.00 | 0.02 | 0.02 | 71 | 1010.3 |
| 20260904104704 | 69 | 237 | 5.0 | 15.0 | 0.00 | 0.02 | 0.02 | 74 | 1010.1 |
| 20260904104204 | 69 | 255 | 6.0 | 14.0 | 0.00 | 0.02 | 0.02 | 73 | 1010.2 |
| 20260904103704 | 69 | 275 | 5.0 | 14.0 | 0.00 | 0.02 | 0.02 | 74 | 1010.4 |
| 20260904103205 | 69 | 234 | 6.0 | 15.0 | 0.00 | 0.02 | 0.02 | 74 | 1010.3 |
| 20260904102704 | 69 | 233 | 6.0 | 15.0 | 0.00 | 0.02 | 0.02 | 75 | 1010.2 |
| 20260904101204 | 69 | 166 | 4.0 | 13.0 | 0.00 | 0.02 | 0.02 | 76 | 1010.0 |
| 20260904100704 | 68 | 244 | 3.0 | 13.0 | 0.00 | 0.02 | 0.02 | 77 | 1009.9 |
| 20260904100204 | 68 | 241 | 4.0 | 13.0 | 0.00 | 0.02 | 0.02 | 77 | 1009.8 |
| 20260904095704 | 68 | 259 | 6.0 | 12.0 | 0.00 | 0.02 | 0.02 | 77 | 1009.8 |
| 20260904095233 | 68 | 228 | 4.0 | 13.0 | 0.00 | 0.02 | 0.02 | 77 | 1009.7 |
| 20260904094704 | 67 | 258 | 4.0 | 13.0 | 0.00 | 0.02 | 0.02 | 77 | 1009.5 |
| 20260904094204 | 67 | 231 | 5.0 | 13.0 | 0.00 | 0.02 | 0.02 | 77 | 1009.6 |
| 20260904093707 | 67 | 235 | 5.0 | 9.0 | 0.00 | 0.02 | 0.02 | 76 | 1009.8 |
| 20260904093206 | 67 | 255 | 2.0 | 9.0 | 0.00 | 0.02 | 0.02 | 74 | 1009.9 |